"Pseudo-MPEC" for CEFL3M2

Created 2026 Apr 10 2:35:07 UT using Find_Orb

Click here for an explanation of pseudo-MPECs

 
 Astrometry: 
     CEFL3M2*1C2026 03 25.49941717 07 32.333+43 47 03.55   ~3PCZ 20.25GVNEOCPG96
     CEFL3M2 1C2026 03 25.50424017 07 32.221+43 47 23.75   ~3PCZ 20.39GVNEOCPG96
     CEFL3M2 1C2026 03 25.50904917 07 32.106+43 47 44.02   ~3PCZ 20.09GVNEOCPG96
     CEFL3M2 1C2026 03 25.51385517 07 31.976+43 48 04.50   ~3PCZ 20.52GVNEOCPG96

Station data:
(G96) Mt. Lemmon Survey  (N32.442729 W110.788720)  US/Arizona.  Observer E.
   J. Christensen. Measurers T. Beuden, V. F. Carvajal, D. Fay, J. B.
   Fazekas, D. C. Fuls, A. R. Gibbs, A. D. Grauer, H. Gröller, J. K. Hogan,
   R. A. Kowalski, S. M. Larson, G. J. Leonard, D. Rankin, R. L. Seaman, F.
   C. Shelly, K. W. Wierzchoś. 1.5-m reflector + 10K CCD.

Orbital elements:  CEFL3M2
   Perihelion 2026 Jan 18.171070 +/- 94.7 TT =  4:06:20.4 (JD 2461058.671070)
Epoch 2026 Mar 26.0 TT = JDT 2461125.5   Earth MOID: 0.0014      AutoNEOCP
M  21.624106736 +/- 100             (J2000 ecliptic)
n   0.323574037 +/- 0.45            Peri.  313.668707 +/- 60
a   2.101294564 +/- 1.95            Node   175.420084 +/- 90
e   0.57975475 +/- 0.244            Incl.   54.237373 +/- 39
P   3.04600                H 19.44  G  0.15   U 12.2  SR
q 0.883059052 +/- 0.45    Q 3.319530076 +/- 12.7
From 4 observations 2026 Mar. 25 (20.8 min); mean residual 0".08
Residuals in arcseconds: 
260325 G96  .04-  .09+    260325 G96  .07+  .11-    
260325 G96  .03+  .08-    260325 G96  .06-  .10+    

Ephemerides (geocentric):
Date (UTC) HH   RA             Dec           delta  r     elong  mag " sig PA
---- --------  ------------   ------------  ------ ------ -----  --- --------
2026 04 10 03  16 53 29.995   +57 02 52.43  .75808 1.3693 101.3 21.3  46d 126
2026 04 10 04  16 53 26.186   +57 04 19.81  .75861 1.3697 101.3 21.3  46d 126
2026 04 10 05  16 53 22.368   +57 05 47.01  .75914 1.3700 101.3 21.3  46d 126
2026 04 10 06  16 53 18.543   +57 07 14.03  .75967 1.3704 101.3 21.3  46d 126
2026 04 10 07  16 53 14.709   +57 08 40.88  .76020 1.3707 101.3 21.3  46d 126
2026 04 10 08  16 53 10.867   +57 10 07.56  .76074 1.3711 101.3 21.3  46d 126
2026 04 10 09  16 53 07.017   +57 11 34.06  .76127 1.3714 101.3 21.3  46d 126
2026 04 10 10  16 53 03.159   +57 13 00.38  .76180 1.3718 101.3 21.3  46d 126
2026 04 10 11  16 52 59.293   +57 14 26.53  .76233 1.3721 101.2 21.3  46d 126
2026 04 10 12  16 52 55.419   +57 15 52.51  .76286 1.3725 101.2 21.3  46d 126
2026 04 10 13  16 52 51.537   +57 17 18.31  .76340 1.3728 101.2 21.3  46d 126
2026 04 10 14  16 52 47.647   +57 18 43.94  .76393 1.3732 101.2 21.3  46d 126
2026 04 10 15  16 52 43.749   +57 20 09.40  .76446 1.3736 101.2 21.3  46d 126
2026 04 10 16  16 52 39.842   +57 21 34.68  .76499 1.3739 101.2 21.3  46d 126
2026 04 10 17  16 52 35.928   +57 22 59.79  .76552 1.3743 101.2 21.3  46d 126
2026 04 10 18  16 52 32.005   +57 24 24.73  .76606 1.3746 101.2 21.3  46d 126
2026 04 10 19  16 52 28.075   +57 25 49.49  .76659 1.3750 101.2 21.3  46d 126
2026 04 10 20  16 52 24.136   +57 27 14.08  .76712 1.3753 101.2 21.3  46d 126
2026 04 10 21  16 52 20.189   +57 28 38.50  .76765 1.3757 101.2 21.3  46d 126
2026 04 10 22  16 52 16.235   +57 30 02.75  .76819 1.3760 101.2 21.3  46d 126
2026 04 10 23  16 52 12.272   +57 31 26.82  .76872 1.3764 101.2 21.3  46d 126
2026 04 11 00  16 52 08.301   +57 32 50.73  .76925 1.3767 101.2 21.3  46d 126
2026 04 11 01  16 52 04.323   +57 34 14.46  .76979 1.3771 101.2 21.3  46d 126
2026 04 11 02  16 52 00.336   +57 35 38.02  .77032 1.3774 101.2 21.3  46d 126
2026 04 11 03  16 51 56.341   +57 37 01.41  .77085 1.3778 101.2 21.3  46d 126
2026 04 11 04  16 51 52.338   +57 38 24.63  .77138 1.3781 101.2 21.3  46d 126
2026 04 11 05  16 51 48.328   +57 39 47.68  .77192 1.3785 101.2 21.3  46d 126
2026 04 11 06  16 51 44.309   +57 41 10.56  .77245 1.3788 101.2 21.3  47d 126
2026 04 11 07  16 51 40.282   +57 42 33.27  .77298 1.3792 101.2 21.3  47d 126
2026 04 11 08  16 51 36.248   +57 43 55.81  .77352 1.3795 101.2 21.3  47d 126
2026 04 11 09  16 51 32.205   +57 45 18.18  .77405 1.3799 101.2 21.3  47d 126
2026 04 11 10  16 51 28.155   +57 46 40.38  .77458 1.3802 101.2 21.3  47d 126
2026 04 11 11  16 51 24.096   +57 48 02.42  .77512 1.3806 101.2 21.3  47d 126
2026 04 11 12  16 51 20.030   +57 49 24.28  .77565 1.3809 101.2 21.3  47d 126
2026 04 11 13  16 51 15.955   +57 50 45.97  .77618 1.3813 101.2 21.3  47d 126
2026 04 11 14  16 51 11.873   +57 52 07.50  .77672 1.3816 101.2 21.3  47d 126
2026 04 11 15  16 51 07.783   +57 53 28.85  .77725 1.3820 101.2 21.3  47d 126
2026 04 11 16  16 51 03.684   +57 54 50.04  .77778 1.3823 101.2 21.3  47d 126
2026 04 11 17  16 50 59.578   +57 56 11.06  .77832 1.3827 101.2 21.3  47d 126
2026 04 11 18  16 50 55.464   +57 57 31.92  .77885 1.3830 101.1 21.3  47d 126
2026 04 11 19  16 50 51.342   +57 58 52.60  .77939 1.3834 101.1 21.3  47d 126
2026 04 11 20  16 50 47.213   +58 00 13.12  .77992 1.3838 101.1 21.3  47d 126
2026 04 11 21  16 50 43.075   +58 01 33.47  .78045 1.3841 101.1 21.3  46d 127
2026 04 11 22  16 50 38.929   +58 02 53.65  .78099 1.3845 101.1 21.3  46d 127
2026 04 11 23  16 50 34.776   +58 04 13.67  .78152 1.3848 101.1 21.3  46d 127
2026 04 12 00  16 50 30.615   +58 05 33.52  .78206 1.3852 101.1 21.3  46d 127
2026 04 12 01  16 50 26.445   +58 06 53.20  .78259 1.3855 101.1 21.3  46d 127
2026 04 12 02  16 50 22.268   +58 08 12.72  .78312 1.3859 101.1 21.3  46d 127